This is the latest recevied weather packets stored in our database for station/object DM0MR. If no packets are shown the sender has not sent any weather packets the latest 10 day(s).
| Time | Temp. | Humidity | Pressure | Rain* | Wind** | Luminosity | Snow |
|---|---|---|---|---|---|---|---|
| 1777565490 | 16.67° C | 35% | 1019.6 hPa | 0 mm | - | - | - |
| 1777563690 | 16.11° C | 36% | 1019.4 hPa | 0 mm | - | - | - |
| 1777562790 | 16.11° C | 35% | 1019.4 hPa | 0 mm | - | - | - |
| 1777561889 | 16.67° C | 35% | 1019.5 hPa | 0 mm | - | - | - |
| 1777560990 | 16.67° C | 35% | 1019.6 hPa | 0 mm | - | - | - |
| 1777560090 | 17.22° C | 32% | 1019.6 hPa | 0 mm | - | - | - |
| 1777559189 | 17.78° C | 31% | 1019.7 hPa | 0 mm | - | - | - |
| 1777558290 | 17.78° C | 31% | 1019.9 hPa | 0 mm | - | - | - |
| 1777557389 | 17.78° C | 32% | 1020.1 hPa | 0 mm | - | - | - |
| 1777556489 | 17.78° C | 31% | 1020.3 hPa | 0 mm | - | - | - |
| 1777555590 | 17.78° C | 32% | 1020.3 hPa | 0 mm | - | - | - |
| 1777553790 | 17.22° C | 30% | 1020.6 hPa | 0 mm | - | - | - |
| 1777552889 | 16.67° C | 31% | 1020.6 hPa | 0 mm | - | - | - |
| 1777551989 | 17.22° C | 28% | 1020.9 hPa | 0 mm | - | - | - |
| 1777551091 | 16.67° C | 27% | 1021 hPa | 0 mm | - | - | - |
| 1777550189 | 16.11° C | 28% | 1020.9 hPa | 0 mm | - | - | - |
| 1777549289 | 16.11° C | 26% | 1021.1 hPa | 0 mm | - | - | - |
| 1777548390 | 16.67° C | 26% | 1021.2 hPa | 0 mm | - | - | - |
| 1777547491 | 15.56° C | 27% | 1021.3 hPa | 0 mm | - | - | - |
| 1777545688 | 15° C | 26% | 1021.4 hPa | 0 mm | - | - | - |
| 1777544789 | 15.56° C | 26% | 1021.7 hPa | 0 mm | - | - | - |
| 1777542091 | 15° C | 26% | 1021.7 hPa | 0 mm | - | - | - |
| 1777541191 | 15.56° C | 27% | 1021.7 hPa | 0 mm | - | - | - |
| 1777540290 | 15° C | 26% | 1022.1 hPa | 0 mm | - | - | - |
| 1777539389 | 15.56° C | 27% | 1022.2 hPa | 0 mm | - | - | - |
* Rain latest hour (hover to see other rain measurements)
** Current wind speed in m/s (hover to see current wind gust speed)